"Pseudo-MPEC" for TF25K10

Created 2025 Nov 9 8:35:08 UT using Find_Orb

Click here for an explanation of pseudo-MPECs

 
 Astrometry: 
     TF25K10* C2025 11 09.15138100 04 03.281-02 18 40.00   ~B94K 20.12GVNEOCPU74
     TF25K10  C2025 11 09.15535700 03 53.838-02 12 23.71   ~B94K 20.12GVNEOCPU74

Station data:
(U74) JPL SynTrack Robotic Telescope 2, Auberry  (N37.070341 W119.412800)
   US/California.  Observers N. Saini, C. Zhai, R. Trahan, M. Zhan, M. Shao.
   0.36-m f/2.2 Schmidt.

Orbital elements:  TF25K10
   Perihelion 2025 Oct 1.034739 +/- 29.1 TT =  0:50:01.4 (JD 2460949.534739)
Epoch 2025 Nov  9.0 TT = JDT 2460988.5   Earth MOID: 0.0053   Ve: 0.0803
M  39.895879724 +/- 42              (J2000 ecliptic)             AutoNEOCP
n   1.023883294 +/- 0.698           Peri.  204.676662 +/- 70
a   0.974920220 +/- 0.443           Node    45.963070 +/- 43
e   0.90284320 +/- 0.257            Incl.   74.609657 +/- 42
P   0.963/351.596d         H 27.57  G  0.15   U 12.5  SR
q 0.094720120 +/- 0.366    Q 1.855120319 +/- 17.6
From 2 observations 2025 Nov. 9 (5.7 min); mean residual 0".00
Residuals in arcseconds: 
251109 U74  .00   .00     251109 U74  .00   .00     

Ephemerides (geocentric):
Date (UTC) HH   RA             Dec           delta  r     elong  mag " sig PA
---- --------  ------------   ------------  ------ ------ -----  --- --------
2025 11 09 09  23 57 36.486   +02 18 13.22  .02133 1.0053 133.5 21.0 6576  15
2025 11 09 10  23 56 44.576   +02 55 25.16  .02226 1.0059 133.4 21.1 9638  13
2025 11 09 11  23 55 56.795   +03 29 37.66  .02320 1.0066 133.4 21.2 251'  11
2025 11 09 12  23 55 12.671   +04 01 11.12  .02413 1.0072 133.4 21.2 434'  15
2025 11 09 13  23 54 31.802   +04 30 22.99  .02507 1.0078 133.3 21.3  17d  67
2025 11 09 14  23 53 53.843   +04 57 28.31  .02601 1.0085 133.3 21.4  18d  76
2025 11 09 15  23 53 18.494   +05 22 40.12  .02695 1.0091 133.2 21.5  18d  80
2025 11 09 16  23 52 45.498   +05 46 09.73  .02790 1.0097 133.2 21.6  18d  79
2025 11 09 17  23 52 14.629   +06 08 07.02  .02884 1.0104 133.1 21.6  21d  77
2025 11 09 18  23 51 45.688   +06 28 40.67  .02979 1.0110 133.1 21.7  23d  78
2025 11 09 19  23 51 18.502   +06 47 58.31  .03073 1.0116 133.0 21.8  24d  81
2025 11 09 20  23 50 52.917   +07 06 06.67  .03168 1.0123 133.0 21.8  24d  82
2025 11 09 21  23 50 28.798   +07 23 11.73  .03263 1.0129 132.9 21.9  24d  83
2025 11 09 22  23 50 06.022   +07 39 18.81  .03358 1.0135 132.9 22.0  24d  84
2025 11 09 23  23 49 44.482   +07 54 32.65  .03453 1.0142 132.8 22.0  24d  84
2025 11 10 00  23 49 24.080   +08 08 57.48  .03548 1.0148 132.8 22.1  24d  85
2025 11 10 01  23 49 04.731   +08 22 37.12  .03643 1.0154 132.7 22.2  24d  85
2025 11 10 02  23 48 46.355   +08 35 34.99  .03738 1.0160 132.6 22.2  24d  85
2025 11 10 03  23 48 28.882   +08 47 54.19  .03834 1.0167 132.6 22.3  24d  84
2025 11 10 04  23 48 12.248   +08 59 37.51  .03929 1.0173 132.5 22.3  25d  83
2025 11 10 05  23 47 56.394   +09 10 47.48  .04024 1.0179 132.5 22.4  25d  83
2025 11 10 06  23 47 41.269   +09 21 26.42  .04120 1.0186 132.4 22.4  25d  82
2025 11 10 07  23 47 26.824   +09 31 36.41  .04215 1.0192 132.4 22.5  26d  80
2025 11 10 08  23 47 13.014   +09 41 19.36  .04311 1.0198 132.3 22.5  26d  79
2025 11 10 09  23 46 59.800   +09 50 37.04  .04406 1.0204 132.3 22.6  27d  79
2025 11 10 10  23 46 47.145   +09 59 31.04  .04502 1.0211 132.2 22.6  27d  78
2025 11 10 11  23 46 35.015   +10 08 02.83  .04598 1.0217 132.1 22.7  28d  78
2025 11 10 12  23 46 23.378   +10 16 13.77  .04693 1.0223 132.1 22.7  28d  78
2025 11 10 13  23 46 12.207   +10 24 05.10  .04789 1.0229 132.0 22.8  30d  83
2025 11 10 14  23 46 01.473   +10 31 37.96  .04885 1.0236 132.0 22.8  34d  87
2025 11 10 15  23 45 51.153   +10 38 53.43  .04980 1.0242 131.9 22.9  34d  77
2025 11 10 16  23 45 41.225   +10 45 52.48  .05076 1.0248 131.9 22.9  34d  79
2025 11 10 17  23 45 31.666   +10 52 36.01  .05172 1.0254 131.8 22.9  34d  82
2025 11 10 18  23 45 22.458   +10 59 04.88  .05268 1.0260 131.8 23.0  34d  84
2025 11 10 19  23 45 13.582   +11 05 19.87  .05364 1.0267 131.7 23.0  34d  86
2025 11 10 20  23 45 05.021   +11 11 21.71  .05459 1.0273 131.7 23.1  34d  86
2025 11 10 21  23 44 56.759   +11 17 11.07  .05555 1.0279 131.6 23.1  32d  75
2025 11 10 22  23 44 48.782   +11 22 48.60  .05651 1.0285 131.6 23.1  33d  72
2025 11 10 23  23 44 41.076   +11 28 14.87  .05747 1.0291 131.5 23.2  33d  72
2025 11 11 00  23 44 33.627   +11 33 30.45  .05843 1.0298 131.5 23.2  34d  73
2025 11 11 01  23 44 26.424   +11 38 35.86  .05939 1.0304 131.4 23.3  34d  73
2025 11 11 02  23 44 19.456   +11 43 31.56  .06035 1.0310 131.4 23.3  34d  73
2025 11 11 03  23 44 12.712   +11 48 18.04  .06131 1.0316 131.3 23.3  35d  73
2025 11 11 04  23 44 06.181   +11 52 55.69  .06227 1.0322 131.3 23.4  35d  73
2025 11 11 05  23 43 59.854   +11 57 24.94  .06323 1.0329 131.2 23.4  35d  73
2025 11 11 06  23 43 53.724   +12 01 46.16  .06419 1.0335 131.2 23.4  35d  73
2025 11 11 07  23 43 47.780   +12 05 59.69  .06515 1.0341 131.1 23.5  36d  73
2025 11 11 08  23 43 42.016   +12 10 05.88  .06611 1.0347 131.1 23.5  36d  73